contact:dominique.lefevre@mio.osupytheas.fr, maurice.libes@osupytheas.fr, didier.mallarino@osupytheas.fr
Project:EMSO http://www.emso-fr.org/EMSO-France
Depth: 2436.0 m
Title:EMSO Ligure Ouest : Data MII capteur AQUADOPP
Date,Latitude,Longitude,X_East,Y_North,Z_Up,Amplitude_X,Amplitude_Y,Amplitude_Z,Batterie,SoundSpeed,Heading,Pitch,Roll,Pressure,TIS,Speed,Direction
, degrees North, degrees East, m.s-1, m.s-1,m.s-1, 1, 1, 1, Volt, m.s-1, degree, degree, degree, dbar, degree_C, m.s-1, degree
2023-12-27T00:04:03,42.805,6.029,-0.002,0.02,-0.021,103.0,104.0,102.0,13.4,1505.2,356.7,-0.8,1.8,2471.56,13.29,0.02,354.3
2023-12-27T00:07:03,42.805,6.029,-0.028,0.037,-0.033,104.0,103.0,102.0,13.3,1505.2,358.5,-0.7,1.8,2471.55,13.29,0.046,322.9
2023-12-27T00:10:03,42.805,6.029,0.016,0.006,-0.008,105.0,104.0,103.0,13.3,1505.2,349.1,-0.8,1.8,2471.571,13.29,0.017,69.4
2023-12-27T00:13:03,42.805,6.029,-0.028,0.03,-0.026,105.0,104.0,102.0,13.4,1505.2,347.9,-0.7,1.8,2471.572,13.29,0.041,317.0
2023-12-27T00:16:03,42.805,6.029,-0.008,0.018,-0.022,104.0,105.0,102.0,13.4,1505.2,340.8,-0.8,1.9,2471.551,13.29,0.019,336.0
2023-12-27T00:19:03,42.805,6.029,-0.002,0.018,-0.004,104.0,104.0,101.0,13.3,1505.2,352.8,-0.8,1.8,2471.524,13.29,0.018,353.7
2023-12-27T00:22:03,42.805,6.029,0.004,0.025,0.008,104.0,106.0,101.0,13.4,1505.2,2.9,-0.8,1.8,2471.542,13.29,0.025,9.1
2023-12-27T00:25:03,42.805,6.029,-0.027,0.024,-0.016,105.0,103.0,102.0,13.3,1505.2,348.5,-0.8,1.8,2471.506,13.29,0.036,311.6
2023-12-27T00:28:03,42.805,6.029,-0.007,0.012,0.009,105.0,104.0,102.0,13.3,1505.2,347.0,-0.7,1.8,2471.491,13.29,0.013,329.7
2023-12-27T00:31:03,42.805,6.029,-0.012,0.021,-0.009,104.0,104.0,102.0,13.3,1505.2,4.6,-0.7,1.8,2471.537,13.29,0.024,330.3
2023-12-27T00:34:03,42.805,6.029,-0.013,0.028,-0.002,105.0,104.0,102.0,13.3,1505.2,343.3,-0.7,1.8,2471.502,13.29,0.03,335.1
2023-12-27T00:37:03,42.805,6.029,-0.015,0.015,0.007,105.0,104.0,102.0,13.3,1505.2,344.7,-0.8,1.8,2471.472,13.29,0.021,315.0
2023-12-27T00:40:03,42.805,6.029,-0.008,0.021,-0.024,103.0,103.0,102.0,13.4,1505.2,359.1,-0.8,1.8,2471.514,13.29,0.022,339.1
2023-12-27T00:43:03,42.805,6.029,-0.007,-0.005,-0.028,104.0,105.0,101.0,13.4,1505.2,340.1,-0.8,1.8,2471.521,13.29,0.008,234.5
2023-12-27T00:46:03,42.805,6.029,-0.02,0.0,0.0,104.0,103.0,102.0,13.3,1505.2,345.2,-0.8,1.8,2471.549,13.29,0.02,270.0
2023-12-27T00:49:03,42.805,6.029,-0.025,0.024,0.007,105.0,104.0,102.0,13.3,1505.2,342.4,-0.8,1.8,2471.552,13.29,0.034,313.8
2023-12-27T00:52:03,42.805,6.029,-0.021,0.03,-0.01,106.0,104.0,102.0,13.4,1505.2,355.9,-0.8,1.8,2471.518,13.29,0.036,325.0
2023-12-27T00:55:03,42.805,6.029,-0.009,0.0,-0.01,105.0,104.0,102.0,13.3,1505.2,1.5,-0.8,1.8,2471.49,13.29,0.009,270.0
2023-12-27T00:58:03,42.805,6.029,-0.024,0.0,0.0,104.0,104.0,103.0,13.4,1505.2,342.0,-0.8,1.8,2471.505,13.29,0.024,270.0
2023-12-27T01:04:03,42.805,6.029,-0.002,0.016,-0.003,104.0,105.0,104.0,13.3,1505.2,351.3,-0.7,1.8,2471.542,13.29,0.016,352.9
2023-12-27T01:07:03,42.805,6.029,-0.013,0.034,0.002,104.0,107.0,102.0,13.3,1505.2,356.0,-0.8,1.8,2471.541,13.29,0.036,339.1
2023-12-27T01:10:03,42.805,6.029,-0.014,0.028,-0.009,104.0,104.0,101.0,13.4,1505.2,353.4,-0.8,1.8,2471.548,13.29,0.031,333.4
2023-12-27T01:13:03,42.805,6.029,-0.01,0.023,-0.016,106.0,105.0,101.0,13.4,1505.2,341.5,-0.8,1.8,2471.523,13.29,0.025,336.5
2023-12-27T01:16:03,42.805,6.029,-0.011,0.014,0.009,103.0,103.0,103.0,13.4,1505.2,350.4,-0.7,1.8,2471.528,13.29,0.017,321.8
2023-12-27T01:19:03,42.805,6.029,-0.005,0.031,-0.024,104.0,103.0,102.0,13.4,1505.2,349.5,-0.8,1.8,2471.495,13.29,0.031,350.8
2023-12-27T01:22:03,42.805,6.029,-0.022,0.019,-0.011,104.0,104.0,101.0,13.3,1505.2,354.8,-0.8,1.8,2471.543,13.29,0.029,310.8
2023-12-27T01:25:03,42.805,6.029,-0.028,0.015,-0.013,105.0,101.0,103.0,13.4,1505.2,341.3,-0.8,1.8,2471.478,13.29,0.031,298.2
2023-12-27T01:28:03,42.805,6.029,-0.021,0.017,0.011,104.0,102.0,102.0,13.3,1505.2,356.7,-0.8,1.8,2471.532,13.29,0.027,309.0
2023-12-27T01:31:03,42.805,6.029,-0.015,0.005,-0.03,103.0,104.0,102.0,13.4,1505.2,356.6,-0.8,1.8,2471.51,13.29,0.015,288.4
2023-12-27T01:34:03,42.805,6.029,-0.012,0.033,-0.001,103.0,103.0,103.0,13.4,1505.2,343.5,-0.7,1.8,2471.522,13.29,0.035,340.0
2023-12-27T01:37:03,42.805,6.029,-0.019,0.028,0.0,104.0,102.0,101.0,13.3,1505.2,355.3,-0.8,1.8,2471.505,13.29,0.033,325.8
2023-12-27T01:40:03,42.805,6.029,-0.024,0.033,0.022,102.0,106.0,101.0,13.3,1505.2,352.3,-0.8,1.8,2471.513,13.29,0.04,324.0
2023-12-27T01:43:03,42.805,6.029,-0.002,-0.009,-0.037,105.0,103.0,101.0,13.4,1505.2,344.6,-0.8,1.8,2471.448,13.29,0.009,192.5
2023-12-27T01:46:03,42.805,6.029,0.007,-0.001,-0.003,104.0,104.0,99.0,13.4,1505.2,356.9,-0.7,1.8,2471.512,13.29,0.007,98.1
2023-12-27T01:49:03,42.805,6.029,-0.01,0.019,0.023,104.0,104.0,100.0,13.4,1505.2,4.5,-0.8,1.8,2471.505,13.29,0.021,332.2
2023-12-27T01:52:03,42.805,6.029,-0.02,0.034,-0.001,103.0,102.0,101.0,13.4,1505.2,341.0,-0.8,1.8,2471.497,13.29,0.039,329.5
2023-12-27T01:55:03,42.805,6.029,0.006,0.012,0.021,105.0,105.0,101.0,13.4,1505.2,350.0,-0.7,1.8,2471.505,13.29,0.013,26.6
2023-12-27T01:58:03,42.805,6.029,-0.011,0.01,-0.016,103.0,103.0,101.0,13.4,1505.2,2.3,-0.8,1.8,2471.497,13.29,0.014,312.3
2023-12-27T02:04:03,42.805,6.029,-0.005,0.046,-0.012,103.0,104.0,101.0,13.4,1505.2,350.8,-0.7,1.8,2471.588,13.29,0.046,353.8
2023-12-27T02:07:03,42.805,6.029,-0.018,0.017,-0.021,104.0,104.0,102.0,13.4,1505.2,342.6,-0.8,1.8,2471.541,13.29,0.024,313.4
2023-12-27T02:10:03,42.805,6.029,0.001,0.015,-0.005,103.0,103.0,102.0,13.3,1505.2,351.8,-0.8,1.8,2471.561,13.29,0.015,3.8
2023-12-27T02:13:03,42.805,6.029,-0.015,0.018,-0.025,104.0,103.0,101.0,13.4,1505.2,3.0,-0.8,1.8,2471.564,13.29,0.023,320.2
2023-12-27T02:16:03,42.805,6.029,-0.002,0.011,-0.002,105.0,118.0,102.0,13.4,1505.2,345.3,-0.8,1.8,2471.529,13.29,0.011,349.7
2023-12-27T02:19:03,42.805,6.029,0.021,0.006,-0.007,102.0,103.0,102.0,13.4,1505.2,347.0,-0.7,1.8,2471.494,13.29,0.021,74.1
2023-12-27T02:22:03,42.805,6.029,-0.006,0.044,0.015,104.0,105.0,102.0,13.3,1505.2,0.8,-0.8,1.8,2471.506,13.29,0.044,352.2
2023-12-27T02:25:03,42.805,6.029,-0.015,0.011,-0.014,104.0,103.0,102.0,13.3,1505.2,342.9,-0.8,1.8,2471.525,13.29,0.018,306.3
2023-12-27T02:28:03,42.805,6.029,-0.007,0.014,-0.047,101.0,103.0,102.0,13.4,1505.2,356.7,-0.7,1.8,2471.531,13.29,0.015,333.4
2023-12-27T02:31:03,42.805,6.029,0.0,0.033,-0.01,104.0,104.0,102.0,13.3,1505.2,346.1,-0.8,1.8,2471.551,13.29,0.033,0.0
2023-12-27T02:34:03,42.805,6.029,0.002,0.026,-0.013,103.0,104.0,101.0,13.4,1505.2,353.2,-0.8,1.8,2471.56,13.29,0.026,4.4
2023-12-27T02:37:03,42.805,6.029,0.009,0.011,-0.002,103.0,104.0,102.0,13.4,1505.2,4.5,-0.8,1.8,2471.557,13.29,0.014,39.3
2023-12-27T02:40:03,42.805,6.029,-0.012,0.031,-0.002,104.0,104.0,103.0,13.3,1505.2,345.3,-0.8,1.8,2471.544,13.29,0.033,338.8
2023-12-27T02:43:03,42.805,6.029,-0.01,0.013,-0.003,104.0,104.0,102.0,13.4,1505.2,346.3,-0.8,1.8,2471.529,13.29,0.016,322.4
2023-12-27T02:46:03,42.805,6.029,-0.002,0.02,-0.012,103.0,103.0,101.0,13.4,1505.2,343.3,-0.8,1.8,2471.561,13.29,0.02,354.3
2023-12-27T02:49:03,42.805,6.029,-0.002,0.008,0.009,103.0,104.0,101.0,13.3,1505.2,343.3,-0.8,1.8,2471.538,13.29,0.008,346.0
2023-12-27T02:52:03,42.805,6.029,0.006,-0.004,-0.011,102.0,104.0,101.0,13.4,1505.2,349.6,-0.7,1.8,2471.497,13.29,0.007,123.7
2023-12-27T02:55:03,42.805,6.029,0.005,0.03,-0.007,104.0,103.0,102.0,13.3,1505.2,354.8,-0.8,1.8,2471.515,13.29,0.03,9.5
2023-12-27T02:58:03,42.805,6.029,-0.012,0.011,-0.012,102.0,104.0,102.0,13.4,1505.2,341.7,-0.8,1.8,2471.537,13.29,0.016,312.5
2023-12-27T03:04:03,42.805,6.029,0.004,0.016,0.001,104.0,104.0,101.0,13.4,1505.2,355.7,-0.8,1.8,2471.585,13.29,0.016,14.0
2023-12-27T03:07:03,42.805,6.029,-0.012,0.015,-0.038,104.0,105.0,102.0,13.4,1505.2,2.4,-0.8,1.8,2471.593,13.29,0.019,321.3
2023-12-27T03:10:03,42.805,6.029,-0.007,0.033,-0.017,104.0,105.0,102.0,13.3,1505.2,2.1,-0.7,1.8,2471.563,13.29,0.033,348.0
2023-12-27T03:13:03,42.805,6.029,-0.01,0.022,-0.019,105.0,104.0,103.0,13.4,1505.2,347.5,-0.8,1.8,2471.578,13.29,0.024,335.6
2023-12-27T03:16:03,42.805,6.029,0.001,0.013,0.016,104.0,103.0,103.0,13.3,1505.2,347.6,-0.8,1.8,2471.523,13.29,0.013,4.4
2023-12-27T03:19:03,42.805,6.029,-0.008,0.018,0.0,105.0,104.0,102.0,13.4,1505.2,359.2,-0.8,1.8,2471.574,13.29,0.019,336.0
2023-12-27T03:22:03,42.805,6.029,-0.027,0.002,-0.029,105.0,105.0,102.0,13.4,1505.2,343.3,-0.8,1.8,2471.542,13.29,0.027,274.2
2023-12-27T03:25:03,42.805,6.029,-0.013,0.037,0.007,104.0,105.0,103.0,13.3,1505.2,348.1,-0.8,1.8,2471.585,13.29,0.039,340.6
2023-12-27T03:28:03,42.805,6.029,-0.01,0.017,-0.03,105.0,105.0,102.0,13.4,1505.2,2.9,-0.7,1.8,2471.594,13.29,0.019,329.5
2023-12-27T03:31:03,42.805,6.029,0.006,0.022,-0.023,104.0,104.0,102.0,13.4,1505.2,352.3,-0.8,1.8,2471.562,13.29,0.022,15.3
2023-12-27T03:34:03,42.805,6.029,0.004,0.026,-0.003,104.0,105.0,103.0,13.4,1505.2,2.3,-0.8,1.8,2471.574,13.29,0.026,8.7
2023-12-27T03:37:03,42.805,6.029,-0.013,0.016,-0.025,104.0,106.0,102.0,13.3,1505.2,344.5,-0.8,1.8,2471.593,13.29,0.02,320.9
2023-12-27T03:40:03,42.805,6.029,-0.016,0.016,-0.023,105.0,105.0,102.0,13.4,1505.2,354.6,-0.8,1.8,2471.542,13.29,0.022,315.0
2023-12-27T03:43:03,42.805,6.029,-0.013,0.035,-0.006,105.0,106.0,102.0,13.4,1505.2,1.6,-0.8,1.8,2471.597,13.29,0.037,339.6
2023-12-27T03:46:03,42.805,6.029,0.008,0.02,-0.004,105.0,105.0,103.0,13.4,1505.2,1.4,-0.8,1.8,2471.599,13.29,0.021,21.8
2023-12-27T03:49:03,42.805,6.029,-0.005,0.014,-0.005,105.0,105.0,103.0,13.4,1505.2,345.5,-0.8,1.8,2471.591,13.29,0.014,340.4
2023-12-27T03:52:03,42.805,6.029,-0.009,0.018,-0.026,104.0,105.0,103.0,13.4,1505.2,349.4,-0.7,1.8,2471.556,13.29,0.02,333.4
2023-12-27T03:55:03,42.805,6.029,-0.008,0.01,-0.009,106.0,104.0,103.0,13.4,1505.2,0.0,-0.8,1.8,2471.599,13.29,0.012,321.3
2023-12-27T03:58:03,42.805,6.029,-0.011,0.018,-0.037,106.0,106.0,101.0,13.3,1505.2,344.5,-0.8,1.8,2471.657,13.29,0.021,328.6
2023-12-27T04:04:03,42.805,6.029,-0.018,0.032,0.011,104.0,105.0,102.0,13.4,1505.2,352.6,-0.8,1.8,2471.63,13.29,0.036,330.6
2023-12-27T04:07:03,42.805,6.029,-0.02,0.017,-0.01,105.0,106.0,102.0,13.3,1505.2,339.4,-0.8,1.8,2471.608,13.29,0.026,310.4
2023-12-27T04:10:03,42.805,6.029,0.001,0.031,-0.01,104.0,106.0,103.0,13.3,1505.2,351.7,-0.8,1.8,2471.672,13.29,0.031,1.8
2023-12-27T04:13:03,42.805,6.029,-0.03,0.015,-0.006,105.0,105.0,102.0,13.4,1505.2,340.1,-0.7,1.8,2471.65,13.29,0.033,296.6
2023-12-27T04:16:03,42.805,6.029,0.007,0.0,-0.043,106.0,104.0,103.0,13.4,1505.2,357.7,-0.7,1.8,2471.615,13.29,0.007,90.0
2023-12-27T04:19:03,42.805,6.029,-0.006,0.022,-0.037,105.0,103.0,103.0,13.3,1505.2,359.1,-0.8,1.8,2471.624,13.29,0.022,344.7
2023-12-27T04:22:03,42.805,6.029,-0.013,0.033,-0.014,104.0,106.0,103.0,13.4,1505.2,1.4,-0.7,1.9,2471.619,13.29,0.035,338.5
2023-12-27T04:25:03,42.805,6.029,-0.014,0.021,-0.02,105.0,105.0,103.0,13.4,1505.2,358.3,-0.7,1.8,2471.641,13.29,0.025,326.3
2023-12-27T04:28:03,42.805,6.029,-0.018,0.02,-0.017,105.0,105.0,103.0,13.3,1505.2,352.5,-0.7,1.8,2471.622,13.29,0.026,318.0
2023-12-27T04:31:03,42.805,6.029,-0.037,0.015,0.013,105.0,105.0,102.0,13.4,1505.2,347.7,-0.8,1.8,2471.634,13.29,0.039,292.1
2023-12-27T04:34:03,42.805,6.029,-0.023,0.02,0.002,105.0,105.0,102.0,13.4,1505.2,354.0,-0.7,1.8,2471.638,13.29,0.03,311.0
2023-12-27T04:37:03,42.805,6.029,-0.012,0.024,0.019,105.0,106.0,103.0,13.4,1505.2,353.4,-0.8,1.8,2471.618,13.29,0.026,333.4
2023-12-27T04:40:03,42.805,6.029,-0.019,0.012,-0.047,106.0,105.0,103.0,13.3,1505.2,2.2,-0.8,1.8,2471.605,13.29,0.022,302.3
2023-12-27T04:43:03,42.805,6.029,-0.007,0.014,0.023,105.0,105.0,103.0,13.4,1505.2,358.4,-0.8,1.8,2471.666,13.29,0.015,333.4
2023-12-27T04:46:03,42.805,6.029,-0.013,0.036,-0.01,105.0,105.0,102.0,13.4,1505.2,4.5,-0.8,1.8,2471.61,13.29,0.038,340.1
2023-12-27T04:49:03,42.805,6.029,-0.012,0.032,-0.008,105.0,104.0,103.0,13.4,1505.2,348.4,-0.8,1.8,2471.645,13.29,0.034,339.4
2023-12-27T04:52:03,42.805,6.029,-0.019,0.029,0.023,105.0,104.0,103.0,13.3,1505.2,355.3,-0.7,1.8,2471.635,13.29,0.034,326.8
2023-12-27T04:55:03,42.805,6.029,0.007,0.016,0.0,105.0,104.0,103.0,13.4,1505.2,1.6,-0.7,1.8,2471.621,13.29,0.017,23.6
2023-12-27T04:58:03,42.805,6.029,-0.001,0.026,0.004,106.0,105.0,103.0,13.4,1505.2,347.8,-0.7,1.8,2471.675,13.29,0.026,357.8
2023-12-27T05:04:03,42.805,6.029,-0.011,0.009,-0.031,107.0,104.0,101.0,13.4,1505.2,3.9,-0.7,1.8,2471.722,13.29,0.014,309.3
2023-12-27T05:07:03,42.805,6.029,0.01,0.017,-0.004,105.0,104.0,103.0,13.3,1505.2,351.6,-0.8,1.8,2471.678,13.29,0.019,30.5
2023-12-27T05:10:03,42.805,6.029,0.002,-0.006,-0.007,106.0,105.0,102.0,13.4,1505.2,1.6,-0.7,1.8,2471.669,13.29,0.006,161.6
2023-12-27T05:13:03,42.805,6.029,-0.014,0.02,0.015,106.0,106.0,102.0,13.3,1505.2,345.1,-0.8,1.8,2471.657,13.29,0.024,325.0
2023-12-27T05:16:03,42.805,6.029,0.007,0.031,0.028,105.0,103.0,103.0,13.4,1505.2,340.2,-0.8,1.8,2471.702,13.29,0.031,12.7
2023-12-27T05:19:03,42.805,6.029,0.001,0.032,0.0,106.0,105.0,102.0,13.4,1505.2,353.0,-0.8,1.8,2471.694,13.29,0.032,1.8
2023-12-27T05:22:03,42.805,6.029,-0.018,0.009,0.005,105.0,106.0,102.0,13.3,1505.2,355.5,-0.7,1.8,2471.708,13.29,0.02,296.6
2023-12-27T05:25:03,42.805,6.029,-0.003,-0.006,-0.035,106.0,105.0,103.0,13.4,1505.2,342.5,-0.8,1.8,2471.725,13.29,0.006,206.6
2023-12-27T05:28:03,42.805,6.029,-0.025,0.016,0.01,104.0,105.0,103.0,13.4,1505.2,347.7,-0.8,1.8,2471.698,13.29,0.029,302.6
2023-12-27T05:31:03,42.805,6.029,-0.015,0.022,-0.026,105.0,106.0,103.0,13.3,1505.2,347.3,-0.7,1.8,2471.699,13.29,0.026,325.7
2023-12-27T05:34:03,42.805,6.029,-0.014,0.036,-0.044,105.0,104.0,103.0,13.3,1505.2,347.0,-0.7,1.8,2471.698,13.29,0.038,338.8
2023-12-27T05:37:03,42.805,6.029,-0.006,0.032,-0.005,106.0,105.0,103.0,13.3,1505.2,352.6,-0.8,1.8,2471.738,13.29,0.032,349.4
2023-12-27T05:40:03,42.805,6.029,-0.016,0.043,0.0,105.0,106.0,103.0,13.4,1505.2,345.5,-0.7,1.8,2471.699,13.29,0.045,339.6
2023-12-27T05:43:03,42.805,6.029,-0.01,0.038,-0.037,104.0,106.0,102.0,13.4,1505.2,357.7,-0.8,1.8,2471.711,13.29,0.039,345.3
2023-12-27T05:46:03,42.805,6.029,-0.002,0.018,0.009,105.0,105.0,103.0,13.3,1505.2,355.0,-0.8,1.8,2471.7,13.29,0.018,353.7
2023-12-27T05:49:03,42.805,6.029,0.005,0.032,0.011,107.0,105.0,103.0,13.4,1505.2,352.6,-0.8,1.8,2471.687,13.29,0.032,8.9
2023-12-27T05:52:03,42.805,6.029,-0.003,0.032,-0.024,105.0,106.0,103.0,13.4,1505.2,354.2,-0.8,1.8,2471.692,13.29,0.032,354.6
2023-12-27T05:55:03,42.805,6.029,-0.001,-0.008,-0.021,104.0,105.0,103.0,13.3,1505.2,347.6,-0.8,1.8,2471.735,13.29,0.008,187.1
2023-12-27T05:58:03,42.805,6.029,-0.003,0.029,-0.03,105.0,105.0,102.0,13.4,1505.2,0.7,-0.7,1.9,2471.749,13.29,0.029,354.1
2023-12-27T06:04:03,42.805,6.029,-0.009,0.003,0.005,105.0,105.0,103.0,13.4,1505.2,344.4,-0.8,1.8,2471.77,13.29,0.009,288.4
2023-12-27T06:07:03,42.805,6.029,-0.003,0.033,-0.005,105.0,106.0,103.0,13.4,1505.2,357.8,-0.7,1.8,2471.762,13.29,0.033,354.8
2023-12-27T06:10:03,42.805,6.029,-0.006,0.004,-0.014,106.0,105.0,103.0,13.4,1505.2,340.5,-0.7,1.8,2471.744,13.29,0.007,303.7
2023-12-27T06:13:03,42.805,6.029,0.007,0.021,0.015,105.0,105.0,103.0,13.3,1505.2,348.3,-0.7,1.8,2471.769,13.29,0.022,18.4
2023-12-27T06:16:03,42.805,6.029,-0.012,0.014,0.0,106.0,105.0,103.0,13.4,1505.2,339.7,-0.8,1.8,2471.758,13.29,0.018,319.4
2023-12-27T06:19:03,42.805,6.029,-0.007,0.013,-0.033,105.0,106.0,103.0,13.4,1505.2,350.4,-0.7,1.8,2471.718,13.29,0.014,331.7
2023-12-27T06:22:03,42.805,6.029,0.002,0.015,-0.007,106.0,106.0,103.0,13.4,1505.2,3.2,-0.8,1.8,2471.75,13.29,0.015,7.6
2023-12-27T06:25:03,42.805,6.029,-0.005,0.023,0.017,106.0,106.0,103.0,13.4,1505.2,346.3,-0.7,1.8,2471.698,13.29,0.023,347.7
2023-12-27T06:28:03,42.805,6.029,-0.01,0.031,0.0,107.0,106.0,102.0,13.4,1505.2,349.6,-0.8,1.8,2471.77,13.29,0.032,342.1
2023-12-27T06:31:03,42.805,6.029,-0.001,0.024,0.015,105.0,105.0,104.0,13.4,1505.2,353.5,-0.8,1.8,2471.727,13.29,0.024,357.6
2023-12-27T06:34:03,42.805,6.029,-0.009,0.002,-0.012,105.0,105.0,104.0,13.4,1505.2,357.6,-0.7,1.8,2471.755,13.29,0.009,282.5
2023-12-27T06:37:03,42.805,6.029,-0.031,0.015,-0.018,106.0,105.0,102.0,13.4,1505.2,1.4,-0.7,1.8,2471.753,13.29,0.034,295.8
2023-12-27T06:40:03,42.805,6.029,0.004,0.018,-0.009,106.0,105.0,103.0,13.4,1505.2,357.5,-0.7,1.8,2471.766,13.29,0.018,12.5
2023-12-27T06:43:03,42.805,6.029,0.002,0.028,0.01,105.0,104.0,103.0,13.4,1505.2,346.8,-0.8,1.8,2471.743,13.29,0.028,4.1
2023-12-27T06:46:03,42.805,6.029,-0.008,0.033,-0.015,105.0,105.0,103.0,13.4,1505.2,354.1,-0.7,1.8,2471.76,13.29,0.033,346.4
2023-12-27T06:49:03,42.805,6.029,0.006,0.029,-0.048,106.0,104.0,103.0,13.4,1505.2,354.8,-0.8,1.8,2471.748,13.29,0.029,11.7
2023-12-27T06:52:03,42.805,6.029,0.013,0.024,-0.004,105.0,105.0,103.0,13.4,1505.2,3.2,-0.8,1.8,2471.724,13.29,0.027,28.4
2023-12-27T06:55:03,42.805,6.029,-0.005,0.024,-0.017,105.0,105.0,105.0,13.4,1505.2,345.3,-0.7,1.8,2471.78,13.29,0.024,348.2
2023-12-27T06:58:03,42.805,6.029,-0.013,0.016,0.027,107.0,104.0,103.0,13.3,1505.2,352.9,-0.8,1.8,2471.782,13.29,0.02,320.9
2023-12-27T07:04:03,42.805,6.029,0.0,0.039,-0.018,105.0,105.0,104.0,13.4,1505.2,339.4,-0.8,1.8,2471.837,13.29,0.039,0.0
2023-12-27T07:07:03,42.805,6.029,-0.012,0.033,-0.009,105.0,105.0,102.0,13.4,1505.2,349.0,-0.8,1.8,2471.799,13.29,0.035,340.0
2023-12-27T07:10:03,42.805,6.029,-0.013,0.043,-0.014,104.0,106.0,103.0,13.4,1505.2,349.1,-0.7,1.8,2471.812,13.29,0.044,343.2
2023-12-27T07:13:03,42.805,6.029,-0.01,0.031,0.003,106.0,104.0,103.0,13.4,1505.2,0.7,-0.8,1.8,2471.829,13.29,0.032,342.1
2023-12-27T07:16:03,42.805,6.029,-0.008,0.008,0.014,104.0,105.0,103.0,13.3,1505.2,2.2,-0.8,1.8,2471.759,13.29,0.011,315.0
2023-12-27T07:19:03,42.805,6.029,-0.019,0.005,-0.028,105.0,105.0,103.0,13.4,1505.2,340.3,-0.8,1.8,2471.795,13.29,0.019,284.7
2023-12-27T07:22:03,42.805,6.029,-0.01,0.025,-0.004,104.0,106.0,103.0,13.4,1505.2,349.1,-0.8,1.8,2471.806,13.29,0.026,338.2
2023-12-27T07:25:03,42.805,6.029,0.017,0.046,-0.023,104.0,105.0,104.0,13.4,1505.2,3.2,-0.8,1.9,2471.758,13.29,0.049,20.3
2023-12-27T07:28:03,42.805,6.029,-0.007,0.008,0.011,104.0,106.0,103.0,13.4,1505.2,341.3,-0.7,1.8,2471.792,13.29,0.01,318.8
2023-12-27T07:31:03,42.805,6.029,0.013,0.019,-0.017,106.0,106.0,102.0,13.4,1505.2,347.9,-0.8,1.8,2471.778,13.29,0.023,34.4
2023-12-27T07:34:03,42.805,6.029,-0.003,0.021,-0.057,106.0,105.0,103.0,13.4,1505.2,2.4,-0.8,1.8,2471.763,13.29,0.021,351.9
2023-12-27T07:37:03,42.805,6.029,0.002,0.026,-0.022,106.0,105.0,102.0,13.4,1505.2,340.8,-0.8,1.8,2471.787,13.29,0.026,4.4
2023-12-27T07:40:03,42.805,6.029,-0.023,0.013,-0.016,105.0,106.0,102.0,13.3,1505.2,356.9,-0.8,1.8,2471.74,13.29,0.026,299.5
2023-12-27T07:43:03,42.805,6.029,-0.016,0.028,-0.032,106.0,106.0,103.0,13.3,1505.2,4.6,-0.8,1.8,2471.782,13.29,0.032,330.3
2023-12-27T07:46:03,42.805,6.029,-0.004,0.041,0.006,105.0,106.0,102.0,13.4,1505.2,345.2,-0.8,1.8,2471.784,13.29,0.041,354.4
2023-12-27T07:49:03,42.805,6.029,-0.005,0.008,-0.039,105.0,106.0,102.0,13.4,1505.2,356.6,-0.8,1.8,2471.756,13.29,0.009,328.0
2023-12-27T07:52:03,42.805,6.029,0.013,0.017,0.026,104.0,105.0,103.0,13.4,1505.2,2.2,-0.8,1.8,2471.746,13.29,0.021,37.4
2023-12-27T07:55:03,42.805,6.029,-0.005,0.01,0.022,105.0,106.0,103.0,13.4,1505.2,350.6,-0.8,1.8,2471.779,13.29,0.011,333.4
2023-12-27T07:58:03,42.805,6.029,-0.006,0.034,-0.003,105.0,106.0,103.0,13.3,1505.2,347.7,-0.8,1.8,2471.784,13.29,0.034,350.0
2023-12-27T08:04:03,42.805,6.029,-0.015,0.024,-0.014,104.0,104.0,103.0,13.4,1505.2,345.9,-0.8,1.8,2471.805,13.29,0.028,328.0
2023-12-27T08:07:03,42.805,6.029,-0.023,0.015,-0.019,105.0,105.0,102.0,13.4,1505.2,3.9,-0.8,1.8,2471.822,13.29,0.027,303.1
2023-12-27T08:10:03,42.805,6.029,-0.011,-0.006,-0.035,104.0,106.0,103.0,13.4,1505.2,340.3,-0.8,1.8,2471.809,13.29,0.012,241.4
2023-12-27T08:13:03,42.805,6.029,0.012,0.0,0.009,108.0,104.0,103.0,13.4,1505.2,355.9,-0.7,1.8,2471.81,13.29,0.012,90.0
2023-12-27T08:16:03,42.805,6.029,0.012,0.021,-0.019,104.0,106.0,103.0,13.3,1505.2,0.0,-0.8,1.8,2471.813,13.29,0.024,29.7
2023-12-27T08:19:03,42.805,6.029,-0.008,0.037,-0.009,106.0,105.0,104.0,13.4,1505.2,349.9,-0.7,1.8,2471.821,13.29,0.037,347.8
2023-12-27T08:22:03,42.805,6.029,-0.012,0.024,-0.016,105.0,105.0,102.0,13.4,1505.2,347.9,-0.8,1.8,2471.83,13.29,0.026,333.4
2023-12-27T08:25:03,42.805,6.029,0.003,0.02,0.027,105.0,105.0,104.0,13.4,1505.2,2.4,-0.7,1.8,2471.751,13.29,0.02,8.5
2023-12-27T08:28:03,42.805,6.029,0.0,0.031,0.002,104.0,105.0,103.0,13.4,1505.2,343.3,-0.8,1.8,2471.795,13.29,0.03,0.0
2023-12-27T08:31:03,42.805,6.029,-0.006,0.016,-0.015,104.0,106.0,102.0,13.4,1505.2,348.3,-0.7,1.8,2471.772,13.29,0.017,339.4
2023-12-27T08:34:03,42.805,6.029,-0.016,0.019,0.005,104.0,105.0,103.0,13.4,1505.2,356.2,-0.7,1.8,2471.791,13.29,0.024,319.9
2023-12-27T08:37:03,42.805,6.029,-0.007,0.005,0.022,104.0,104.0,102.0,13.4,1505.2,343.5,-0.7,1.8,2471.824,13.29,0.008,305.5
2023-12-27T08:40:03,42.805,6.029,-0.001,0.011,-0.025,105.0,105.0,102.0,13.4,1505.2,356.5,-0.8,1.8,2471.791,13.29,0.011,354.8
2023-12-27T08:43:03,42.805,6.029,-0.003,0.027,0.005,104.0,105.0,103.0,13.3,1505.2,340.6,-0.8,1.9,2471.777,13.29,0.027,353.7
2023-12-27T08:46:03,42.805,6.029,0.0,0.003,0.016,106.0,104.0,103.0,13.4,1505.2,354.4,-0.7,1.8,2471.78,13.29,0.003,0.0
2023-12-27T08:49:03,42.805,6.029,-0.007,0.014,-0.008,104.0,104.0,103.0,13.4,1505.2,359.1,-0.8,1.8,2471.786,13.29,0.015,333.4
2023-12-27T08:52:03,42.805,6.029,-0.012,0.031,-0.009,107.0,105.0,103.0,13.3,1505.2,349.9,-0.7,1.8,2471.793,13.29,0.033,338.8
2023-12-27T08:55:03,42.805,6.029,0.001,0.002,-0.001,104.0,104.0,102.0,13.4,1505.2,350.1,-0.7,1.8,2471.831,13.29,0.002,26.6
2023-12-27T08:58:03,42.805,6.029,-0.005,0.018,0.009,105.0,105.0,103.0,13.4,1505.2,358.3,-0.8,1.8,2471.77,13.29,0.018,344.5
2023-12-27T09:04:03,42.805,6.029,0.005,-0.005,0.004,104.0,105.0,103.0,13.3,1505.2,348.3,-0.8,1.8,2471.823,13.29,0.007,135.0
2023-12-27T09:07:03,42.805,6.029,-0.003,0.024,-0.007,105.0,105.0,104.0,13.4,1505.2,359.2,-0.8,1.8,2471.818,13.29,0.024,352.9
2023-12-27T09:10:03,42.805,6.029,-0.008,0.005,0.013,105.0,104.0,103.0,13.3,1505.2,346.9,-0.8,1.8,2471.808,13.29,0.009,302.0
2023-12-27T09:13:03,42.805,6.029,-0.003,0.012,0.001,105.0,104.0,102.0,13.3,1505.2,347.6,-0.8,1.8,2471.794,13.29,0.012,346.0
2023-12-27T09:16:03,42.805,6.029,0.007,0.023,-0.038,105.0,105.0,103.0,13.4,1505.2,0.7,-0.8,1.8,2471.78,13.29,0.024,16.9
2023-12-27T09:19:03,42.805,6.029,-0.008,0.011,0.008,105.0,104.0,103.0,13.4,1505.2,342.5,-0.8,1.8,2471.781,13.29,0.013,324.0
2023-12-27T09:22:03,42.805,6.029,0.0,0.019,0.011,105.0,105.0,102.0,13.4,1505.2,351.8,-0.8,1.8,2471.773,13.29,0.019,0.0
2023-12-27T09:25:03,42.805,6.029,-0.004,0.025,-0.003,104.0,105.0,103.0,13.4,1505.2,0.0,-0.8,1.8,2471.828,13.29,0.025,350.9
2023-12-27T09:28:03,42.805,6.029,-0.014,-0.001,-0.016,105.0,104.0,102.0,13.4,1505.2,353.5,-0.7,1.8,2471.801,13.29,0.014,265.9
2023-12-27T09:31:03,42.805,6.029,-0.019,0.018,-0.018,103.0,105.0,102.0,13.4,1505.2,356.7,-0.7,1.8,2471.762,13.29,0.026,313.5
2023-12-27T09:34:03,42.805,6.029,-0.001,0.019,-0.02,103.0,105.0,102.0,13.4,1505.2,3.2,-0.8,1.8,2471.759,13.29,0.019,357.0
2023-12-27T09:37:03,42.805,6.029,-0.025,0.023,-0.023,107.0,104.0,102.0,13.3,1505.2,348.0,-0.8,1.8,2471.736,13.29,0.033,312.6
2023-12-27T09:40:03,42.805,6.029,-0.003,0.016,0.003,105.0,104.0,102.0,13.4,1505.2,348.3,-0.7,1.8,2471.792,13.29,0.016,349.4
2023-12-27T09:43:03,42.805,6.029,-0.007,0.016,-0.007,105.0,104.0,102.0,13.4,1505.2,357.4,-0.8,1.8,2471.741,13.29,0.017,336.4
2023-12-27T09:46:03,42.805,6.029,-0.012,0.031,-0.005,104.0,103.0,102.0,13.4,1505.2,358.5,-0.8,1.8,2471.8,13.29,0.033,338.8
2023-12-27T09:49:03,42.805,6.029,0.0,0.011,-0.037,103.0,104.0,102.0,13.4,1505.2,350.8,-0.8,1.8,2471.758,13.29,0.011,0.0
2023-12-27T09:52:03,42.805,6.029,0.001,0.014,-0.031,105.0,105.0,102.0,13.3,1505.2,346.8,-0.8,1.8,2471.767,13.29,0.014,4.1
2023-12-27T09:55:03,42.805,6.029,0.008,0.001,-0.012,104.0,104.0,102.0,13.4,1505.2,354.8,-0.8,1.8,2471.777,13.29,0.008,82.9
2023-12-27T09:58:03,42.805,6.029,-0.004,0.031,-0.035,103.0,104.0,102.0,13.4,1505.2,357.5,-0.7,1.8,2471.766,13.29,0.031,352.7